Location: Most
(50.5133°N, 13.6207°E)
Time: 18:15:58
(UTC+01:00)

ZACube-1 - Visible Passes

Search period start: 03 December 2021 00:00
Search period end: 13 December 2021 00:00
Orbit: 583 x 664 km, 97.6° (Epoch: 02 December)

Date Brightness Start Highest point End Pass type
(mag) Time Alt. Az. Time Alt. Az. Time Alt. Az.
03 Dec ? 05:14:12 10° N 05:15:30 18° N 05:15:30 18° N visible
04 Dec ? 03:56:34 10° NNE 03:56:47 11° NNE 03:56:47 11° NNE visible
04 Dec ? 05:32:53 10° N 05:34:02 16° NNW 05:34:02 16° NNW visible
05 Dec ? 04:14:52 10° NNE 04:15:20 13° NNE 04:15:20 13° NNE visible
05 Dec ? 05:51:41 10° N 05:52:34 14° NNW 05:52:34 14° NNW visible
05 Dec ? 16:53:01 10° WSW 16:55:33 15° W 16:58:07 10° NW visible
06 Dec ? 04:33:17 10° NNE 04:33:52 14° NNE 04:33:52 14° NNE visible
06 Dec ? 06:10:38 10° NNW 06:11:06 12° NNW 06:11:06 12° NNW visible
07 Dec ? 04:51:47 10° N 04:52:25 14° N 04:52:25 14° N visible
08 Dec ? 05:10:22 10° N 05:10:58 14° N 05:10:58 14° N visible
09 Dec ? 05:29:02 10° N 05:29:31 13° N 05:29:31 13° N visible
10 Dec ? 05:47:47 10° N 05:48:05 11° N 05:48:05 11° N visible
10 Dec ? 16:48:51 10° SW 16:51:40 17° W 16:54:30 10° NW visible
11 Dec ? 17:09:06 10° WSW 17:10:23 11° W 17:11:41 10° WNW visible
12 Dec ? 04:47:57 10° N 04:47:59 10° N 04:47:59 10° N visible
